Regional Weather Roundup
Issued by NWS State College, PA

Home | Current Version | Previous Version | Text Only | Print | Product List | Glossary On
Versions: 1 2 3 4 5 6 7 8 9 10 11 12 13 14 15 16 17 18 19 20 21 22 23 24 25 26 27 28 29 30 31 32 33 34 35 36 37 38 39 40 41 42 43 44 45 46 47 48 49 50
000
ASUS41 KCTP 061510
RWRCTP

REGIONAL WEATHER ROUNDUP
NATIONAL WEATHER SERVICE STATE COLLEGE PA
1000 AM EST TUE DEC 06 2016

Note: "fair" indicates few or no clouds below 12,000 feet with no
significant weather and/or obstructions to visibility.

* = STATION THAT DOES NOT REPORT PRECIPITATION /E.G. RAIN...SNOW...ETC/
    THUNDER OR FOG.

PAZ002>004-007>009-013>016-020>023-029>032-061600-
WESTERN PENNSYLVANIA

CITY           SKY/WX    TMP DP  RH WIND       PRES   REMARKS
ERIE           CLOUDY    39  28  64 SE10      29.87F
MEADVILLE      MOSUNNY   35  26  69 SE7G16    29.85F
FRANKLIN*        N/A     34  25  69 E13G24    29.88F
NEW CASTLE     PTSUNNY   38  28  67 SE8G16    29.85F
BEAVER COUNTY  PTSUNNY   37  28  70 E13       29.84F
BUTLER*        CLOUDY    37  27  65 E13G21    29.88F
PITTSBURGH INT LGT RAIN  41  31  67 SE13      29.84F
PITTSBURGH     LGT RAIN  39  29  67 SE14      29.85F
INDIANA*       PTSUNNY   37  28  70 SE20G29   29.94F
LATROBE        LGT RAIN  37  32  81 VRB7      29.89F
WASHINGTON CO* CLOUDY    37  34  87 E7        29.83F
$$

PAZ004>006-010>012-017>019-024>028-033>037-041-042-045-046-049>053-061600-
CENTRAL PENNSYLVANIA

CITY           SKY/WX    TMP DP  RH WIND       PRES   REMARKS
BRADFORD       CLOUDY    32  26  78 SE14      29.93F
DUBOIS         CLOUDY    34  25  69 SE13G29   29.92F
CLEARFIELD     CLOUDY    31  29  92 NE10      29.98F
JOHNSTOWN      MIX PCPN  32  28  85 SE15G22   29.93F
ALTOONA        LGT RAIN  36  28  73 SE10      30.00F
STATE COLLEGE  SUNNY     34  28  80 CALM      30.01F
WILLIAMSPORT   MOSUNNY   42  29  59 SE3       30.08F
SELINSGROVE    CLOUDY    32  32 100 CALM      30.09F
FT INDIANTOWN  MOSUNNY   36  33  87 CALM      30.09F
CAPITAL CITY   CLOUDY    38  30  73 NE3       30.08F
HARRISBURG     CLOUDY    37  32  82 E3        30.08F
YORK           CLOUDY    36  34  92 CALM      30.08F
$$

PAZ038>040-043-044-047-048-054-055-060>062-067>071-061600-
EASTERN PENNSYLVANIA

CITY           SKY/WX    TMP DP  RH WIND       PRES   REMARKS
SCRANTON       CLOUDY    33  28  81 N5        30.08F
MOUNT POCONO   CLOUDY    33  26  75 E9        30.06S
ALLENTOWN      CLOUDY    35  30  82 NE3       30.13S
QUAKERTOWN*    CLOUDY    36  32  87 NE5       30.12S
READING        CLOUDY    36  31  82 N3        30.10S
LANCASTER      CLOUDY    38  33  82 E7        30.09S
COATESVILLE    CLOUDY    39  30  70 NE6G14    30.09F
POTTSTOWN      CLOUDY    37  30  75 NE6       30.12F
BLUE BELL      CLOUDY    37  32  81 NE3       30.11S
DOYLESTOWN     CLOUDY    39  31  72 NE6       30.11F
WILLOW GROVE   NOT AVBL
NORTH PHILA    CLOUDY    41  32  70 NE9       30.15S
PHILADELPHIA   CLOUDY    42  30  62 NE10      30.13S
$$




USA.gov is the U.S. government's official web portal to all federal, state and local government web resources and services.